Location: San Antonio
(29.4240°N, 98.4930°W)
Time: 03:47:30
(UTC-05:00)

Vanguard 1 Rocket - All Passes

Search period start: 15 July 2024 00:00
Search period end: 25 July 2024 00:00
Orbit: 650 x 4219 km, 34.3° (Epoch: 14 July)

Date Brightness Start Highest point End Pass type
(mag) Time Alt. Az. Time Alt. Az. Time Alt. Az.
15 Jul - 01:46:57 10° WNW 01:55:06 89° NNE 02:11:52 10° ESE visible
15 Jul - 04:12:08 10° W 04:23:39 47° SSW 04:44:12 10° SE visible
15 Jul - 06:43:32 10° WSW 06:54:34 18° SW 07:08:29 10° S daylight
15 Jul - 19:47:13 10° SW 19:51:20 37° SSE 19:55:45 10° E daylight
15 Jul - 22:11:22 10° W 22:16:02 62° N 22:23:25 10° ENE visible
16 Jul - 00:35:38 10° WNW 00:42:14 72° NNE 00:55:16 10° E visible
16 Jul - 03:00:00 10° WNW 03:09:39 62° SSW 03:28:41 10° SE visible
16 Jul - 05:27:31 10° W 05:39:25 27° SW 05:57:05 10° SSE visible
16 Jul - 18:36:36 10° SSW 18:39:48 17° SSE 18:42:46 10° ESE daylight
16 Jul - 20:59:48 10° WSW 21:04:10 83° NNW 21:09:55 10° ENE visible
16 Jul - 23:24:21 10° WNW 23:29:45 60° N 23:39:24 10° E visible
17 Jul - 01:48:25 10° WNW 01:56:19 80° SSW 02:12:32 10° ESE visible
17 Jul - 04:13:57 10° W 04:24:49 38° SSW 04:43:26 10° SSE visible
17 Jul - 06:49:31 10° SW 06:55:58 12° SW 07:03:19 10° SSW daylight
17 Jul - 19:48:13 10° SW 19:52:38 55° SSE 19:57:15 10° ENE daylight
17 Jul - 22:12:57 10° W 22:17:33 55° N 22:24:40 10° ENE visible
18 Jul - 00:37:06 10° WNW 00:43:34 80° NNE 00:56:20 10° ESE visible
18 Jul - 03:01:36 10° W 03:10:51 51° SSW 03:28:32 10° SE visible
18 Jul - 05:30:33 10° WSW 05:40:42 20° SSW 05:54:47 10° S visible
18 Jul - 18:36:47 10° SSW 18:41:07 27° SSE 18:44:52 10° E daylight
18 Jul - 21:01:17 10° W 21:05:38 65° NNW 21:11:10 10° ENE visible
18 Jul - 23:25:53 10° WNW 23:31:12 63° NNE 23:40:40 10° E visible
19 Jul - 01:49:54 10° WNW 01:57:33 67° SSW 02:12:59 10° SE visible
19 Jul - 04:16:06 10° W 04:26:06 29° SSW 04:42:12 10° SSE visible
19 Jul - 17:26:01 10° S 17:29:16 15° SSE 17:31:59 10° ESE daylight
19 Jul - 19:49:25 10° WSW 19:53:59 80° SSE 19:58:38 10° ENE daylight
19 Jul - 22:14:31 10° WNW 22:19:04 52° N 22:25:59 10° E visible
20 Jul - 00:38:34 10° WNW 00:44:52 88° SSW 00:57:16 10° ESE visible
20 Jul - 03:03:20 10° W 03:12:08 40° SSW 03:28:04 10° SSE visible
20 Jul - 05:35:01 10° WSW 05:42:10 14° SSW 05:51:02 10° S visible
20 Jul - 18:37:26 10° SW 18:42:27 42° SSE 18:46:35 10° E daylight
20 Jul - 21:02:50 10° W 21:07:07 54° N 21:12:28 10° ENE visible
20 Jul - 23:27:21 10° WNW 23:32:36 69° NNE 23:41:54 10° E visible
21 Jul - 01:51:26 10° W 01:58:50 54° SSW 02:13:11 10° SE visible
21 Jul - 04:18:46 10° WSW 04:27:29 22° SSW 04:40:22 10° S visible
21 Jul - 17:25:36 10° SSW 17:30:40 24° SSE 17:34:28 10° E daylight
21 Jul - 19:50:45 10° WSW 19:55:23 77° NNW 19:59:59 10° ENE daylight
21 Jul - 22:16:03 10° WNW 22:20:34 53° N 22:27:20 10° E visible
22 Jul - 00:40:02 10° WNW 00:46:10 74° SSW 00:58:02 10° ESE visible
22 Jul - 03:05:21 10° W 03:13:29 30° SSW 03:27:14 10° SSE visible
22 Jul - 16:14:27 10° S 16:18:26 15° SSE 16:21:35 10° ESE daylight
22 Jul - 18:38:21 10° WSW 18:43:48 62° SSE 18:48:07 10° ENE daylight
22 Jul - 21:04:23 10° W 21:08:37 49° N 21:13:48 10° ENE visible
22 Jul - 23:28:48 10° WNW 23:33:59 80° NNE 23:43:04 10° ESE visible
23 Jul - 01:53:08 10° W 02:00:10 42° SSW 02:13:06 10° SE night (unlit)
23 Jul - 04:22:34 10° WSW 04:28:59 15° SSW 04:37:22 10° S visible
23 Jul - 17:25:50 10° SW 17:32:04 36° SSE 17:36:22 10° E daylight
23 Jul - 19:52:11 10° W 19:56:49 60° NNW 20:01:19 10° ENE daylight
23 Jul - 22:17:31 10° WNW 22:22:01 58° NNE 22:28:41 10° E visible
24 Jul - 00:41:32 10° WNW 00:47:29 58° SSW 00:58:35 10° SE visible
24 Jul - 03:07:48 10° WSW 03:14:56 22° SSW 03:25:50 10° SSE visible
24 Jul - 16:13:30 10° SSW 16:19:55 23° SSE 16:24:19 10° ESE daylight
24 Jul - 18:39:27 10° WSW 18:45:09 86° SSE 18:49:33 10° ENE daylight
24 Jul - 21:05:54 10° WNW 21:10:08 47° N 21:15:12 10° ENE visible
24 Jul - 23:30:14 10° WNW 23:35:19 84° SSW 23:44:06 10° ESE visible
